Wetterdaten: Woche 15.02.10 - 21.02.10 (KW7)
Datum Zeit Temperatur Luftfeuchte Luftdruck Niederschlag Windrichtung Wind
15.02.2010 00:00 -5,3 C 88 % 1011,6 hPa 0,0 l/m N 0,5 km/h (0 Bft)
15.02.2010 01:00 -5,3 C 89 % 1011,2 hPa 0,0 l/m N 0,3 km/h (0 Bft)
15.02.2010 02:00 -5,4 C 89 % 1010,9 hPa 0,0 l/m N 0,1 km/h (0 Bft)
15.02.2010 03:00 -5,5 C 90 % 1010,6 hPa 0,0 l/m N 0,4 km/h (0 Bft)
15.02.2010 04:00 -5,5 C 90 % 1010,2 hPa 0,0 l/m N 0,4 km/h (0 Bft)
15.02.2010 05:00 -5,5 C 90 % 1010,1 hPa 0,0 l/m S 1,5 km/h (1 Bft)
15.02.2010 06:00 -5,6 C 90 % 1009,9 hPa 0,0 l/m N 0,0 km/h (0 Bft)
15.02.2010 07:00 -5,7 C 90 % 1009,8 hPa 0,0 l/m N 0,0 km/h (0 Bft)
15.02.2010 08:00 -5,4 C 88 % 1009,9 hPa 0,0 l/m N 0,3 km/h (0 Bft)
15.02.2010 09:00 -4,4 C 84 % 1009,6 hPa 0,0 l/m S 2,4 km/h (1 Bft)
15.02.2010 10:00 -4,0 C 80 % 1009,4 hPa 0,0 l/m S 3,1 km/h (1 Bft)
15.02.2010 11:00 -3,5 C 78 % 1009,3 hPa 0,0 l/m S 4,0 km/h (1 Bft)
15.02.2010 12:00 -3,2 C 75 % 1009,0 hPa 0,0 l/m S 5,1 km/h (1 Bft)
15.02.2010 13:00 -2,8 C 74 % 1008,6 hPa 0,0 l/m S 5,1 km/h (1 Bft)
15.02.2010 14:00 -2,9 C 74 % 1008,1 hPa 0,0 l/m O 5,3 km/h (1 Bft)
15.02.2010 15:00 -2,8 C 74 % 1007,8 hPa 0,0 l/m O 6,1 km/h (2 Bft)
15.02.2010 16:00 -3,2 C 76 % 1007,5 hPa 0,0 l/m O 5,5 km/h (1 Bft)
15.02.2010 17:00 -3,6 C 77 % 1007,4 hPa 0,0 l/m O 5,1 km/h (1 Bft)
15.02.2010 18:00 -4,3 C 79 % 1007,6 hPa 0,0 l/m O 3,5 km/h (1 Bft)
15.02.2010 19:00 -5,2 C 80 % 1007,6 hPa 0,0 l/m N 1,6 km/h (1 Bft)
15.02.2010 20:00 -7,1 C 83 % 1007,4 hPa 0,0 l/m N 0,1 km/h (0 Bft)
15.02.2010 21:00 -8,7 C 86 % 1007,4 hPa 0,0 l/m N 0,7 km/h (0 Bft)
15.02.2010 22:00 -9,7 C 89 % 1007,5 hPa 0,0 l/m N 1,2 km/h (1 Bft)
15.02.2010 23:00 -10,1 C 90 % 1007,2 hPa 0,0 l/m N 0,7 km/h (0 Bft)
16.02.2010 00:00 -10,7 C 90 % 1007,2 hPa 0,0 l/m N 0,4 km/h (0 Bft)
16.02.2010 01:00 -11,1 C 91 % 1007,0 hPa 0,0 l/m N 0,0 km/h (0 Bft)
16.02.2010 02:00 -10,8 C 92 % 1007,0 hPa 0,0 l/m N 0,5 km/h (0 Bft)
16.02.2010 03:00 -10,2 C 93 % 1006,6 hPa 0,0 l/m N 0,0 km/h (0 Bft)
16.02.2010 04:00 -9,9 C 92 % 1006,3 hPa 0,0 l/m N 0,9 km/h (0 Bft)
16.02.2010 05:00 -10,0 C 92 % 1006,2 hPa 0,0 l/m O 2,0 km/h (1 Bft)
16.02.2010 06:00 -11,1 C 89 % 1006,0 hPa 0,0 l/m N-NW 3,7 km/h (1 Bft)
16.02.2010 07:00 -11,8 C 91 % 1006,1 hPa 0,0 l/m N-NW 4,9 km/h (1 Bft)
16.02.2010 08:00 -10,7 C 94 % 1006,3 hPa 0,0 l/m N-NW 4,0 km/h (1 Bft)
16.02.2010 09:00 -8,9 C 94 % 1006,3 hPa 0,0 l/m N-NW 4,5 km/h (1 Bft)
16.02.2010 10:00 -7,1 C 89 % 1006,0 hPa 0,0 l/m N-NW 4,7 km/h (1 Bft)
16.02.2010 11:00 -5,0 C 83 % 1005,6 hPa 0,0 l/m N-NW 6,1 km/h (2 Bft)
16.02.2010 12:00 -3,4 C 79 % 1005,2 hPa 0,0 l/m N-NW 7,8 km/h (2 Bft)
16.02.2010 13:00 -2,0 C 75 % 1004,7 hPa 0,0 l/m N-NW 6,4 km/h (2 Bft)
16.02.2010 14:00 -0,7 C 71 % 1004,0 hPa 0,0 l/m N-NW 7,2 km/h (2 Bft)
16.02.2010 15:00 -0,8 C 72 % 1003,5 hPa 0,0 l/m N-NW 9,4 km/h (2 Bft)
16.02.2010 16:00 -1,6 C 75 % 1003,1 hPa 0,0 l/m N-NW 7,6 km/h (2 Bft)
16.02.2010 17:00 -2,9 C 80 % 1002,7 hPa 0,0 l/m N-NW 6,0 km/h (2 Bft)
16.02.2010 18:00 -4,3 C 84 % 1002,7 hPa 0,0 l/m N-NW 4,5 km/h (1 Bft)
16.02.2010 19:00 -4,4 C 87 % 1002,6 hPa 0,0 l/m N-NW 3,5 km/h (1 Bft)
16.02.2010 20:00 -4,1 C 87 % 1002,2 hPa 0,0 l/m N-NW 6,6 km/h (2 Bft)
16.02.2010 21:00 -4,7 C 88 % 1001,8 hPa 0,0 l/m N-NW 7,7 km/h (2 Bft)
16.02.2010 22:00 -4,7 C 90 % 1001,3 hPa 0,0 l/m N-NW 6,0 km/h (2 Bft)
16.02.2010 23:00 -4,7 C 90 % 1000,7 hPa 0,0 l/m N-NW 8,3 km/h (2 Bft)
17.02.2010 00:00 -4,7 C 91 % 1000,3 hPa 0,0 l/m N-NW 5,9 km/h (2 Bft)
17.02.2010 01:00 -4,7 C 91 % 999,6 hPa 0,0 l/m N-NW 5,9 km/h (2 Bft)
17.02.2010 02:00 -4,8 C 91 % 999,1 hPa 0,0 l/m N-NO 8,6 km/h (2 Bft)
17.02.2010 03:00 -5,0 C 91 % 998,7 hPa 0,0 l/m N-NO 6,1 km/h (2 Bft)
17.02.2010 04:00 -5,4 C 92 % 998,3 hPa 0,0 l/m N-NO 6,0 km/h (2 Bft)
17.02.2010 05:00 -5,3 C 92 % 997,7 hPa 0,0 l/m N 6,7 km/h (2 Bft)
17.02.2010 06:00 -5,4 C 92 % 997,2 hPa 0,0 l/m N 7,1 km/h (2 Bft)
17.02.2010 07:00 -5,3 C 92 % 997,1 hPa 0,0 l/m N 5,9 km/h (2 Bft)
17.02.2010 08:00 -4,9 C 92 % 997,1 hPa 0,0 l/m N-NO 8,4 km/h (2 Bft)
17.02.2010 09:00 -4,2 C 90 % 996,8 hPa 0,0 l/m N-NO 8,7 km/h (2 Bft)
17.02.2010 10:00 -3,5 C 88 % 996,5 hPa 0,0 l/m N-NO 11,4 km/h (2 Bft)
17.02.2010 11:00 -2,4 C 86 % 996,1 hPa 0,0 l/m NO 8,0 km/h (2 Bft)
17.02.2010 12:00 -0,7 C 80 % 995,6 hPa 0,0 l/m NO 7,2 km/h (2 Bft)
17.02.2010 13:00 0,9 C 77 % 995,0 hPa 0,0 l/m NO 8,3 km/h (2 Bft)
17.02.2010 14:00 1,5 C 77 % 994,5 hPa 0,0 l/m N-NO 9,5 km/h (2 Bft)
17.02.2010 15:00 0,5 C 81 % 994,7 hPa 0,0 l/m N 13,7 km/h (3 Bft)
17.02.2010 16:00 -0,2 C 83 % 995,4 hPa 0,0 l/m N 11,5 km/h (2 Bft)
17.02.2010 17:00 -0,2 C 84 % 995,8 hPa 0,0 l/m N 3,1 km/h (1 Bft)
17.02.2010 18:00 -0,3 C 84 % 996,2 hPa 0,0 l/m NO 1,9 km/h (1 Bft)
17.02.2010 19:00 -0,6 C 87 % 996,1 hPa 0,0 l/m N 0,8 km/h (0 Bft)
17.02.2010 20:00 -0,6 C 88 % 996,0 hPa 0,0 l/m N-NO 3,5 km/h (1 Bft)
17.02.2010 21:00 -1,0 C 88 % 996,2 hPa 0,0 l/m N-NW 3,3 km/h (1 Bft)
17.02.2010 22:00 -1,8 C 89 % 996,1 hPa 0,0 l/m N 6,6 km/h (2 Bft)
17.02.2010 23:00 -2,3 C 90 % 996,3 hPa 0,0 l/m N-NW 4,7 km/h (1 Bft)
18.02.2010 00:00 -2,6 C 91 % 996,3 hPa 0,0 l/m N-NW 1,9 km/h (1 Bft)
18.02.2010 01:00 -2,9 C 92 % 996,6 hPa 0,0 l/m W-SW 2,0 km/h (1 Bft)
18.02.2010 02:00 -3,1 C 91 % 997,2 hPa 0,0 l/m W-SW 2,0 km/h (1 Bft)
18.02.2010 03:00 -3,5 C 92 % 997,4 hPa 0,0 l/m N 0,9 km/h (0 Bft)
18.02.2010 04:00 -3,2 C 93 % 997,7 hPa 0,0 l/m N 0,9 km/h (0 Bft)
18.02.2010 05:00 -2,5 C 94 % 998,0 hPa 0,0 l/m N 2,3 km/h (1 Bft)
18.02.2010 06:00 -2,0 C 95 % 998,6 hPa 0,0 l/m W-SW 3,2 km/h (1 Bft)
18.02.2010 07:00 -1,6 C 95 % 999,1 hPa 0,0 l/m N 1,2 km/h (1 Bft)
18.02.2010 08:00 -1,4 C 94 % 999,7 hPa 0,0 l/m S-SW 3,9 km/h (1 Bft)
18.02.2010 09:00 0,2 C 93 % 1000,2 hPa 0,0 l/m S-SW 8,0 km/h (2 Bft)
18.02.2010 10:00 2,1 C 85 % 1000,5 hPa 0,0 l/m S 6,9 km/h (2 Bft)
18.02.2010 11:00 4,0 C 79 % 1000,9 hPa 0,0 l/m S-SW 12,8 km/h (3 Bft)
18.02.2010 12:00 4,9 C 82 % 1001,2 hPa 0,0 l/m W-SW 16,2 km/h (3 Bft)
18.02.2010 13:00 5,5 C 81 % 1001,3 hPa 0,0 l/m SW 17,6 km/h (3 Bft)
18.02.2010 14:00 5,3 C 80 % 1001,1 hPa 0,0 l/m SW 11,7 km/h (2 Bft)
18.02.2010 15:00 5,7 C 81 % 1000,9 hPa 0,0 l/m SW 12,5 km/h (3 Bft)
18.02.2010 16:00 5,6 C 83 % 1000,4 hPa 0,0 l/m SW 7,6 km/h (2 Bft)
18.02.2010 17:00 4,6 C 85 % 1000,4 hPa 0,0 l/m S-SW 4,4 km/h (1 Bft)
18.02.2010 18:00 2,8 C 89 % 1000,6 hPa 0,0 l/m S-SW 3,1 km/h (1 Bft)
18.02.2010 19:00 1,8 C 91 % 1001,5 hPa 0,0 l/m SW 2,1 km/h (1 Bft)
18.02.2010 20:00 0,9 C 93 % 1002,0 hPa 0,0 l/m N 0,1 km/h (0 Bft)
18.02.2010 21:00 0,8 C 95 % 1002,2 hPa 0,0 l/m N 0,4 km/h (0 Bft)
18.02.2010 22:00 0,7 C 95 % 1001,8 hPa 0,0 l/m N 0,8 km/h (0 Bft)
18.02.2010 23:00 0,3 C 95 % 1001,3 hPa 0,0 l/m N 0,0 km/h (0 Bft)
19.02.2010 00:00 0,0 C 95 % 1000,5 hPa 0,0 l/m N 0,3 km/h (0 Bft)
19.02.2010 01:00 -0,4 C 95 % 999,7 hPa 0,0 l/m N 0,9 km/h (0 Bft)
19.02.2010 02:00 -0,6 C 96 % 999,1 hPa 0,0 l/m N-NW 4,5 km/h (1 Bft)
19.02.2010 03:00 -0,4 C 97 % 998,2 hPa 0,0 l/m N-NW 11,3 km/h (2 Bft)
19.02.2010 04:00 -0,7 C 97 % 997,1 hPa 0,0 l/m N-NW 8,3 km/h (2 Bft)
19.02.2010 05:00 -0,8 C 98 % 995,7 hPa 0,0 l/m N 5,5 km/h (1 Bft)
19.02.2010 06:00 -0,7 C 98 % 994,0 hPa 0,0 l/m N-NW 9,3 km/h (2 Bft)
19.02.2010 07:00 -0,4 C 98 % 993,6 hPa 0,0 l/m N-NW 8,6 km/h (2 Bft)
19.02.2010 08:00 -0,2 C 98 % 992,7 hPa 0,0 l/m N-NW 13,4 km/h (3 Bft)
19.02.2010 09:00 0,3 C 98 % 992,7 hPa 0,0 l/m N 9,9 km/h (2 Bft)
19.02.2010 10:00 1,1 C 98 % 992,2 hPa 0,0 l/m N-NW 4,7 km/h (1 Bft)
19.02.2010 11:00 2,1 C 95 % 991,5 hPa 0,0 l/m N-NW 4,0 km/h (1 Bft)
19.02.2010 12:00 2,8 C 92 % 990,8 hPa 0,0 l/m N-NW 4,5 km/h (1 Bft)
19.02.2010 13:00 3,4 C 91 % 990,4 hPa 0,0 l/m N-NW 3,2 km/h (1 Bft)
19.02.2010 14:00 3,9 C 90 % 990,9 hPa 0,2 l/m N-NW 1,7 km/h (1 Bft)
19.02.2010 15:00 3,8 C 92 % 990,8 hPa 0,6 l/m N-NW 3,3 km/h (1 Bft)
19.02.2010 16:00 3,3 C 94 % 991,4 hPa 0,8 l/m S-SW 3,6 km/h (1 Bft)
19.02.2010 17:00 2,6 C 95 % 992,8 hPa 2,6 l/m N 9,5 km/h (2 Bft)
19.02.2010 18:00 1,9 C 95 % 994,1 hPa 1,4 l/m N 5,6 km/h (1 Bft)
19.02.2010 19:00 1,3 C 96 % 995,5 hPa 0,6 l/m SW 7,8 km/h (2 Bft)
19.02.2010 20:00 0,9 C 96 % 996,6 hPa 0,8 l/m W-SW 4,7 km/h (1 Bft)
19.02.2010 21:00 0,9 C 97 % 997,3 hPa 0,4 l/m W-SW 7,5 km/h (2 Bft)
19.02.2010 22:00 0,7 C 97 % 997,9 hPa 0,4 l/m N-NW 6,8 km/h (2 Bft)
19.02.2010 23:00 0,6 C 97 % 998,5 hPa 0,0 l/m W 4,8 km/h (1 Bft)
20.02.2010 00:00 0,5 C 95 % 999,2 hPa 0,0 l/m NW 5,1 km/h (1 Bft)
20.02.2010 01:00 0,2 C 94 % 999,6 hPa 0,0 l/m W-NW 4,0 km/h (1 Bft)
20.02.2010 02:00 -0,1 C 92 % 999,8 hPa 0,0 l/m NW 4,4 km/h (1 Bft)
20.02.2010 03:00 -0,3 C 93 % 1000,0 hPa 0,0 l/m SW 4,3 km/h (1 Bft)
20.02.2010 04:00 -0,6 C 93 % 1000,0 hPa 0,0 l/m SW 8,4 km/h (2 Bft)
20.02.2010 05:00 -0,5 C 92 % 1000,2 hPa 0,0 l/m W-SW 8,4 km/h (2 Bft)
20.02.2010 06:00 -0,3 C 93 % 1000,1 hPa 0,0 l/m SW 8,6 km/h (2 Bft)
20.02.2010 07:00 -0,5 C 94 % 1000,4 hPa 0,0 l/m SW 6,7 km/h (2 Bft)
20.02.2010 08:00 -0,3 C 94 % 1000,8 hPa 0,0 l/m SW 6,4 km/h (2 Bft)
20.02.2010 09:00 0,4 C 89 % 1001,1 hPa 0,0 l/m W-SW 12,0 km/h (2 Bft)
20.02.2010 10:00 0,8 C 85 % 1001,2 hPa 0,0 l/m W-SW 16,0 km/h (3 Bft)
20.02.2010 11:00 1,9 C 82 % 1001,1 hPa 0,0 l/m W-SW 18,0 km/h (3 Bft)
20.02.2010 12:00 2,7 C 78 % 1000,9 hPa 0,0 l/m W-SW 19,4 km/h (3 Bft)
20.02.2010 13:00 3,5 C 68 % 1000,6 hPa 0,0 l/m W-SW 19,8 km/h (4 Bft)
20.02.2010 14:00 3,4 C 65 % 1000,3 hPa 0,0 l/m W-SW 21,6 km/h (4 Bft)
20.02.2010 15:00 3,0 C 66 % 1000,4 hPa 0,0 l/m W-SW 17,8 km/h (3 Bft)
20.02.2010 16:00 2,5 C 69 % 1000,7 hPa 0,0 l/m W-SW 17,4 km/h (3 Bft)
20.02.2010 17:00 1,8 C 73 % 1000,7 hPa 0,0 l/m SW 7,9 km/h (2 Bft)
20.02.2010 18:00 0,8 C 75 % 1001,1 hPa 0,0 l/m W-SW 9,3 km/h (2 Bft)
20.02.2010 19:00 0,2 C 76 % 1001,6 hPa 0,0 l/m SW 8,5 km/h (2 Bft)
20.02.2010 20:00 -0,2 C 78 % 1001,9 hPa 0,0 l/m SW 8,2 km/h (2 Bft)
20.02.2010 21:00 0,1 C 78 % 1002,6 hPa 0,0 l/m SW 10,2 km/h (2 Bft)
20.02.2010 22:00 0,2 C 83 % 1003,0 hPa 0,0 l/m W-SW 21,0 km/h (4 Bft)
20.02.2010 23:00 -0,1 C 88 % 1003,5 hPa 0,0 l/m W-SW 17,6 km/h (3 Bft)
21.02.2010 00:00 0,1 C 88 % 1004,0 hPa 0,0 l/m SW 19,6 km/h (3 Bft)
21.02.2010 01:00 0,0 C 88 % 1004,3 hPa 0,0 l/m SW 12,8 km/h (3 Bft)
21.02.2010 02:00 -0,2 C 89 % 1004,6 hPa 0,0 l/m W-SW 16,5 km/h (3 Bft)
21.02.2010 03:00 -0,5 C 89 % 1004,7 hPa 0,0 l/m W-SW 12,9 km/h (3 Bft)
21.02.2010 04:00 -0,9 C 90 % 1004,9 hPa 0,0 l/m W-SW 17,7 km/h (3 Bft)
21.02.2010 05:00 -1,0 C 89 % 1005,0 hPa 0,0 l/m SW 12,9 km/h (3 Bft)
21.02.2010 06:00 -1,6 C 90 % 1004,6 hPa 0,0 l/m SW 11,4 km/h (2 Bft)
21.02.2010 07:00 -1,7 C 89 % 1004,4 hPa 0,0 l/m SW 16,2 km/h (3 Bft)
21.02.2010 08:00 -0,8 C 83 % 1004,4 hPa 0,0 l/m SW 19,0 km/h (3 Bft)
21.02.2010 09:00 -0,2 C 76 % 1004,0 hPa 0,0 l/m W-SW 19,4 km/h (3 Bft)
21.02.2010 10:00 2,1 C 66 % 1003,8 hPa 0,0 l/m SW 18,0 km/h (3 Bft)
21.02.2010 11:00 3,8 C 55 % 1003,8 hPa 0,0 l/m W-SW 21,4 km/h (4 Bft)
21.02.2010 12:00 4,9 C 53 % 1003,3 hPa 0,0 l/m W-SW 23,9 km/h (4 Bft)
21.02.2010 13:00 5,4 C 54 % 1002,7 hPa 0,0 l/m W-SW 22,6 km/h (4 Bft)
21.02.2010 14:00 6,1 C 53 % 1002,2 hPa 0,0 l/m SW 21,1 km/h (4 Bft)
21.02.2010 15:00 6,1 C 52 % 1001,7 hPa 0,0 l/m SW 13,3 km/h (3 Bft)
21.02.2010 16:00 5,4 C 52 % 1001,3 hPa 0,0 l/m S-SW 6,4 km/h (2 Bft)
21.02.2010 17:00 3,8 C 61 % 1000,6 hPa 0,0 l/m N 0,1 km/h (0 Bft)
21.02.2010 18:00 1,6 C 71 % 1000,6 hPa 0,0 l/m N 0,7 km/h (0 Bft)
21.02.2010 19:00 0,4 C 73 % 1000,7 hPa 0,0 l/m N 1,1 km/h (0 Bft)
21.02.2010 20:00 -0,5 C 76 % 1000,8 hPa 0,0 l/m SW 1,7 km/h (1 Bft)
21.02.2010 21:00 -1,1 C 78 % 1001,0 hPa 0,0 l/m N 1,3 km/h (1 Bft)
21.02.2010 22:00 -1,7 C 80 % 1000,6 hPa 0,0 l/m SW 0,8 km/h (0 Bft)
21.02.2010 23:00 -2,3 C 81 % 1000,2 hPa 0,0 l/m N 0,1 km/h (0 Bft)
Min-Datum _ 16.02.10 21.02.10 19.02.10 - - 15.02.10
_ Min-Zeit 07:20 16:15 13:05 - - 00:00
Minimum _ -11,9 C 50 % 990,1 hPa - - 0,0 km/h (0 Bft)
Max-Datum _ 21.02.10 19.02.10 15.02.10 19.02.10 - 21.02.10
_ Max-Zeit 14:50 05:10 00:00 17:25 - 12:55
Maximum _ 6,3 C 98 % 1011,8 hPa 2,6 l/m - 32,2 km/h
SW (5 Bft)
Durchschnitt _ -1,5 C 85 % 1001,2 hPa #7,8 l/m N-NW 6,9 km/h (2 Bft)